sat.trackr.live / text

‹ back to catalog

STARLINK-37099

NORAD 68301 · 2026-057H

PAYLOAD ACTIVE UNKNOWN

§ Identity

Operator
Country
US
Launch date
2026-03-20
Launch site
AFWTR
Launch vehicle
Mass (kg)
RCS (m²)

Purposes: comms

External: N2YO · Heavens-Above · Gunter

§ Orbital elements

Epoch: 2026-05-25T02:05:08.719008Z

Period
91.41 min
Inclination
97.2864°
Eccentricity
0.0001155
Mean motion
15.75254227 rev/d
Perigee alt
343.1 km
Apogee alt
344.7 km
Semi-major
6,722.0 km
B*
1.0969e-3
RAAN
271.3586°
Arg perigee
54.2502°
Mean anomaly
305.8870°
Rev number
1,031

§ Raw data

STARLINK-370991 68301U 26057H   26145.08690647  .00167187  00000+0  10969-2 0  99922 68301  97.2864 271.3586 0001155  54.2502 305.8870 15.75254227 10314

JSON: /api/v1/satellites/68301 · /tle

For live sub-satellite position, see the globe view (requires WebGL).

§ Visibility from observer

Set your observer location to see the next 7 days of passes ≥ 10°. The values pass through the URL so the page stays shareable.

No JS? Fill the form by hand. The geolocation button needs JavaScript.